AAL118 KLAX-KJFK

Flight info

Callsign AAL118
Flight time N/A
Altitude 39000
Route DOTSS2 CLEEE PKE HIPPI HMFRY RSK KD45U TODDE HLC TKO PWE MZV JOT GIJ EVOTE DAFLU J70 JHW Q476 WLKES PUCKY1
Aircraft B772/H-SDE2E3FGHIJ5LORVWXY/LB1D1

Departure

Time N/A
Airport Los Angeles International Airport (KLAX)

Arrival

Time 2026-05-05 20:24
Airport John F. Kennedy International Airport (KJFK)
Time Latitude Longitude Altitude Speed Heading
2026-05-05 17:16 36.91922 -107.63386 38881 ft 559 kts 67°
2026-05-05 17:16 36.93555 -107.58901 38882 ft 559 kts 67°
2026-05-05 17:17 36.96755 -107.50107 38862 ft 559 kts 67°
2026-05-05 17:17 36.99972 -107.41245 38850 ft 559 kts 67°
2026-05-05 17:18 37.03186 -107.32367 38817 ft 560 kts 67°
2026-05-05 17:18 37.06399 -107.23470 38824 ft 561 kts 67°
2026-05-05 17:19 37.09611 -107.14543 38827 ft 562 kts 67°
2026-05-05 17:19 37.12821 -107.05594 38827 ft 563 kts 67°
2026-05-05 17:20 37.16028 -106.96632 38827 ft 563 kts 67°
2026-05-05 17:20 37.19230 -106.87659 38858 ft 563 kts 68°
2026-05-05 17:21 37.22401 -106.78744 38843 ft 563 kts 68°
2026-05-05 17:22 37.27179 -106.65254 38828 ft 564 kts 68°
2026-05-05 17:22 37.30355 -106.56250 38808 ft 564 kts 68°
2026-05-05 17:23 37.33529 -106.47237 38820 ft 564 kts 67°
2026-05-05 17:23 37.36707 -106.38197 38798 ft 566 kts 68°
2026-05-05 17:24 37.39832 -106.29132 38893 ft 564 kts 69°
2026-05-05 17:24 37.43002 -106.20027 38793 ft 572 kts 67°
2026-05-05 17:25 37.46243 -106.10858 38810 ft 575 kts 68°
2026-05-05 17:25 37.49446 -106.01613 38783 ft 577 kts 68°
2026-05-05 17:26 37.52590 -105.92300 38951 ft 578 kts 69°
2026-05-05 17:26 37.55636 -105.82925 38937 ft 578 kts 69°
2026-05-05 17:27 37.58647 -105.73611 38902 ft 577 kts 69°
2026-05-05 17:27 37.61694 -105.64223 38857 ft 576 kts 69°
2026-05-05 17:28 37.64722 -105.54896 38807 ft 574 kts 69°
2026-05-05 17:28 37.67737 -105.45575 38794 ft 573 kts 69°
2026-05-05 17:29 37.70736 -105.36278 38814 ft 570 kts 69°
2026-05-05 17:29 37.73699 -105.27054 38800 ft 571 kts 69°
2026-05-05 17:30 37.76695 -105.17691 38867 ft 572 kts 69°
2026-05-05 17:30 37.79655 -105.08416 38868 ft 573 kts 69°
2026-05-05 17:31 37.82634 -104.99049 38885 ft 575 kts 69°
2026-05-05 17:31 37.85614 -104.89654 38879 ft 575 kts 69°
2026-05-05 17:32 37.88590 -104.80231 38890 ft 577 kts 69°
2026-05-05 17:32 37.91565 -104.70785 38874 ft 578 kts 69°
2026-05-05 17:33 37.94536 -104.61323 38893 ft 579 kts 69°
2026-05-05 17:33 37.97508 -104.51822 38904 ft 579 kts 69°
2026-05-05 17:34 38.00473 -104.42313 38946 ft 579 kts 69°
2026-05-05 17:34 38.03422 -104.32820 38932 ft 577 kts 69°
2026-05-05 17:35 38.06336 -104.23410 38913 ft 576 kts 69°
2026-05-05 17:35 38.09257 -104.13944 38911 ft 576 kts 69°
2026-05-05 17:36 38.12173 -104.04462 38916 ft 577 kts 69°
2026-05-05 17:36 38.15087 -103.94955 38920 ft 578 kts 69°
2026-05-05 17:37 38.18001 -103.85417 38956 ft 579 kts 69°
2026-05-05 17:37 38.20892 -103.75917 38966 ft 580 kts 69°
2026-05-05 17:38 38.23800 -103.66331 38997 ft 582 kts 69°
2026-05-05 17:38 38.26728 -103.56728 38983 ft 582 kts 68°
2026-05-05 17:39 38.29747 -103.47150 38966 ft 583 kts 68°
2026-05-05 17:39 38.32778 -103.37578 38964 ft 583 kts 68°
2026-05-05 17:40 38.35785 -103.27999 38946 ft 583 kts 68°
2026-05-05 17:40 38.38779 -103.18383 38958 ft 583 kts 68°
2026-05-05 17:41 38.41764 -103.08754 38952 ft 583 kts 68°
2026-05-05 17:41 38.44716 -102.99205 38947 ft 582 kts 68°
2026-05-05 17:42 38.47678 -102.89594 38961 ft 582 kts 68°
2026-05-05 17:42 38.50634 -102.79970 38961 ft 582 kts 68°
2026-05-05 17:43 38.53582 -102.70341 38968 ft 581 kts 68°
2026-05-05 17:43 38.56517 -102.60717 38976 ft 582 kts 68°
2026-05-05 17:44 38.59449 -102.51070 38977 ft 582 kts 68°
2026-05-05 17:44 38.62374 -102.41413 38977 ft 582 kts 68°
2026-05-05 17:45 38.65275 -102.31801 38985 ft 582 kts 68°
2026-05-05 17:45 38.68184 -102.22128 38988 ft 583 kts 68°
2026-05-05 17:46 38.71086 -102.12443 38983 ft 582 kts 68°
2026-05-05 17:46 38.73981 -102.02745 39005 ft 583 kts 68°
2026-05-05 17:47 38.76873 -101.93027 38988 ft 583 kts 68°
2026-05-05 17:47 38.79754 -101.83307 38998 ft 583 kts 68°
2026-05-05 17:48 38.82628 -101.73580 38994 ft 583 kts 69°
2026-05-05 17:48 38.85492 -101.63848 38998 ft 583 kts 68°
2026-05-05 17:49 38.88349 -101.54106 38996 ft 583 kts 69°
2026-05-05 17:49 38.91180 -101.44419 38999 ft 584 kts 69°
2026-05-05 17:50 38.94031 -101.34625 39001 ft 584 kts 69°
2026-05-05 17:50 38.96865 -101.24852 39002 ft 584 kts 69°
2026-05-05 17:51 38.99698 -101.15051 39033 ft 585 kts 69°
2026-05-05 17:51 39.02526 -101.05228 39035 ft 585 kts 69°
2026-05-05 17:52 39.04868 -100.97065 39055 ft 585 kts 69°
2026-05-05 17:52 39.08133 -100.85644 39096 ft 585 kts 69°
2026-05-05 17:53 39.10936 -100.75799 39061 ft 585 kts 69°
2026-05-05 17:53 39.13275 -100.67556 39064 ft 585 kts 69°
2026-05-05 17:54 39.16045 -100.57762 39041 ft 585 kts 69°
2026-05-05 17:54 39.18822 -100.47903 39030 ft 585 kts 69°
2026-05-05 17:55 39.21592 -100.38032 39024 ft 585 kts 69°
2026-05-05 17:55 39.24347 -100.28175 39029 ft 584 kts 69°
2026-05-05 17:56 39.27116 -100.18288 39035 ft 585 kts 69°
2026-05-05 17:56 39.29950 -100.08444 39037 ft 585 kts 68°
2026-05-05 17:57 39.32803 -99.98582 39035 ft 586 kts 68°
2026-05-05 17:57 39.35632 -99.88718 39038 ft 586 kts 68°
2026-05-05 17:58 39.38447 -99.78827 39072 ft 586 kts 68°
2026-05-05 17:58 39.41237 -99.68981 39082 ft 587 kts 68°
2026-05-05 17:59 39.44041 -99.59053 39063 ft 587 kts 69°
2026-05-05 17:59 39.46839 -99.49111 39053 ft 587 kts 69°
2026-05-05 18:00 39.49625 -99.39174 39043 ft 587 kts 68°
2026-05-05 18:00 39.52403 -99.29226 39063 ft 587 kts 69°
2026-05-05 18:01 39.55158 -99.19324 39065 ft 588 kts 69°
2026-05-05 18:01 39.57924 -99.09343 39052 ft 588 kts 69°
2026-05-05 18:02 39.60674 -98.99377 39057 ft 587 kts 69°
2026-05-05 18:02 39.63417 -98.89403 39057 ft 586 kts 69°
2026-05-05 18:03 39.66152 -98.79419 39048 ft 586 kts 69°
2026-05-05 18:03 39.68871 -98.69452 39049 ft 586 kts 69°
2026-05-05 18:04 39.71583 -98.59474 39090 ft 586 kts 69°
2026-05-05 18:04 39.74291 -98.49468 39053 ft 588 kts 69°
2026-05-05 18:05 39.76993 -98.39446 39044 ft 588 kts 69°
2026-05-05 18:05 39.79689 -98.29407 39035 ft 588 kts 68°
2026-05-05 18:06 39.82071 -98.19231 39041 ft 589 kts 74°
2026-05-05 18:06 39.84103 -98.08903 39041 ft 589 kts 75°
2026-05-05 18:07 39.86110 -97.98548 39034 ft 590 kts 75°
2026-05-05 18:07 39.88133 -97.88270 39031 ft 590 kts 74°
2026-05-05 18:08 39.90184 -97.77915 39033 ft 590 kts 74°
2026-05-05 18:08 39.92229 -97.67547 39029 ft 591 kts 74°
2026-05-05 18:09 39.94259 -97.57178 39029 ft 590 kts 74°
2026-05-05 18:09 39.96279 -97.46792 39027 ft 591 kts 74°
2026-05-05 18:10 39.98292 -97.36393 39028 ft 592 kts 74°
2026-05-05 18:10 40.00284 -97.26050 39029 ft 592 kts 75°
2026-05-05 18:11 40.02281 -97.15626 39029 ft 592 kts 75°
2026-05-05 18:11 40.04267 -97.05200 39069 ft 592 kts 75°
2026-05-05 18:12 40.06248 -96.94748 39031 ft 593 kts 75°
2026-05-05 18:12 40.08217 -96.84307 39017 ft 592 kts 75°
2026-05-05 18:13 40.10174 -96.73869 39013 ft 591 kts 75°
2026-05-05 18:13 40.12124 -96.63415 39014 ft 591 kts 75°
2026-05-05 18:14 40.14058 -96.52992 39017 ft 591 kts 75°
2026-05-05 18:14 40.15971 -96.42627 39016 ft 591 kts 75°
2026-05-05 18:15 40.17890 -96.32169 39008 ft 591 kts 75°
2026-05-05 18:15 40.19803 -96.21700 38997 ft 591 kts 74°
2026-05-05 18:16 40.22004 -96.11360 38997 ft 590 kts 71°
2026-05-05 18:16 40.24392 -96.01089 38989 ft 590 kts 70°
2026-05-05 18:17 40.26778 -95.90804 38992 ft 590 kts 70°
2026-05-05 18:17 40.29118 -95.80497 38991 ft 591 kts 71°
2026-05-05 18:18 40.31431 -95.70168 38978 ft 591 kts 71°
2026-05-05 18:18 40.33731 -95.59844 38978 ft 591 kts 71°
2026-05-05 18:19 40.36017 -95.49557 38990 ft 592 kts 71°
2026-05-05 18:19 40.38312 -95.39190 38973 ft 591 kts 71°
2026-05-05 18:20 40.40593 -95.28834 38971 ft 590 kts 70°
2026-05-05 18:20 40.42862 -95.18486 38981 ft 590 kts 71°
2026-05-05 18:21 40.45124 -95.08122 38976 ft 590 kts 71°
2026-05-05 18:21 40.47375 -94.97760 38985 ft 590 kts 71°
2026-05-05 18:22 40.49615 -94.87394 38984 ft 591 kts 71°
2026-05-05 18:22 40.51836 -94.77067 38978 ft 591 kts 71°
2026-05-05 18:23 40.54061 -94.66673 38965 ft 591 kts 71°
2026-05-05 18:23 40.56279 -94.56259 38960 ft 590 kts 71°
2026-05-05 18:24 40.58485 -94.45855 38970 ft 590 kts 71°
2026-05-05 18:24 40.60681 -94.35443 38969 ft 591 kts 71°
2026-05-05 18:25 40.62872 -94.25007 38967 ft 591 kts 71°
2026-05-05 18:25 40.65050 -94.14578 38985 ft 591 kts 71°
2026-05-05 18:26 40.67208 -94.04197 38971 ft 591 kts 71°
2026-05-05 18:26 40.69370 -93.93740 38974 ft 591 kts 71°
2026-05-05 18:27 40.71523 -93.83280 38971 ft 591 kts 71°
2026-05-05 18:27 40.73665 -93.72814 38959 ft 590 kts 71°
2026-05-05 18:28 40.76854 -93.57140 38963 ft 590 kts 71°
2026-05-05 18:28 40.78971 -93.46669 38961 ft 590 kts 71°
2026-05-05 18:29 40.81079 -93.36190 38961 ft 590 kts 71°
2026-05-05 18:29 40.83173 -93.25721 38962 ft 590 kts 71°
2026-05-05 18:30 40.85248 -93.15297 38960 ft 590 kts 71°
2026-05-05 18:30 40.87326 -93.04804 38997 ft 590 kts 71°
2026-05-05 18:31 40.89398 -92.94290 38959 ft 590 kts 71°
2026-05-05 18:31 40.91457 -92.83779 38951 ft 590 kts 71°
2026-05-05 18:32 40.93504 -92.73279 38961 ft 589 kts 71°
2026-05-05 18:32 40.95539 -92.62786 38968 ft 588 kts 71°
2026-05-05 18:33 40.97558 -92.52316 38965 ft 588 kts 71°
2026-05-05 18:33 40.99575 -92.41806 38969 ft 587 kts 71°
2026-05-05 18:34 41.01561 -92.31397 38972 ft 587 kts 71°
2026-05-05 18:34 41.03555 -92.20896 38947 ft 587 kts 71°
2026-05-05 18:35 41.05542 -92.10372 38949 ft 587 kts 71°
2026-05-05 18:35 41.07515 -91.99866 38947 ft 587 kts 72°
2026-05-05 18:36 41.09477 -91.89359 38954 ft 587 kts 71°
2026-05-05 18:36 41.11417 -91.78915 38950 ft 587 kts 71°
2026-05-05 18:37 41.13359 -91.68400 38947 ft 586 kts 72°
2026-05-05 18:37 41.15288 -91.57899 38944 ft 585 kts 72°
2026-05-05 18:38 41.17201 -91.47428 38937 ft 583 kts 72°
2026-05-05 18:38 41.19104 -91.36954 38945 ft 583 kts 72°
2026-05-05 18:39 41.20997 -91.26482 38954 ft 582 kts 72°
2026-05-05 18:39 41.22877 -91.16015 38960 ft 583 kts 72°
2026-05-05 18:40 41.24738 -91.05600 38959 ft 583 kts 72°
2026-05-05 18:40 41.26598 -90.95128 38948 ft 583 kts 72°
2026-05-05 18:41 41.28452 -90.84632 38927 ft 582 kts 72°
2026-05-05 18:41 41.29986 -90.75904 38924 ft 582 kts 72°
2026-05-05 18:42 41.31819 -90.65405 38927 ft 582 kts 73°
2026-05-05 18:42 41.33178 -90.54740 38942 ft 585 kts 78°
2026-05-05 18:43 41.34260 -90.44002 38932 ft 585 kts 79°
2026-05-05 18:43 41.35337 -90.33251 38948 ft 586 kts 78°
2026-05-05 18:44 41.36443 -90.22522 38930 ft 585 kts 78°
2026-05-05 18:44 41.37549 -90.11867 38914 ft 584 kts 78°
2026-05-05 18:45 41.38650 -90.01152 38917 ft 583 kts 78°
2026-05-05 18:45 41.39737 -89.90437 38915 ft 583 kts 78°
2026-05-05 18:46 41.40809 -89.79739 38918 ft 582 kts 78°
2026-05-05 18:46 41.41872 -89.69042 38919 ft 583 kts 78°
2026-05-05 18:47 41.42926 -89.58328 38917 ft 583 kts 79°
2026-05-05 18:47 41.43963 -89.47685 38924 ft 583 kts 79°
2026-05-05 18:48 41.44998 -89.36958 38920 ft 584 kts 79°
2026-05-05 18:48 41.46023 -89.26230 38934 ft 583 kts 79°
2026-05-05 18:49 41.47038 -89.15495 38936 ft 583 kts 79°
2026-05-05 18:49 41.48045 -89.04743 38898 ft 583 kts 79°
2026-05-05 18:50 41.49039 -88.94012 38890 ft 583 kts 79°
2026-05-05 18:50 41.50023 -88.83275 38887 ft 583 kts 79°
2026-05-05 18:51 41.50996 -88.72543 38883 ft 582 kts 79°
2026-05-05 18:51 41.51959 -88.61828 38884 ft 581 kts 79°
2026-05-05 18:52 41.52911 -88.51110 38890 ft 581 kts 79°
2026-05-05 18:52 41.53846 -88.40465 38906 ft 581 kts 79°
2026-05-05 18:53 41.54786 -88.29745 38911 ft 580 kts 78°
2026-05-05 18:53 41.55986 -88.19113 38914 ft 579 kts 76°
2026-05-05 18:54 41.57336 -88.08519 38903 ft 578 kts 76°
2026-05-05 18:54 41.58640 -87.97931 38907 ft 577 kts 76°
2026-05-05 18:55 41.59883 -87.87347 38892 ft 576 kts 77°
2026-05-05 18:55 41.61102 -87.76769 38877 ft 575 kts 77°
2026-05-05 18:56 41.62313 -87.66200 38905 ft 575 kts 77°
2026-05-05 18:56 41.63512 -87.55692 38890 ft 575 kts 77°
2026-05-05 18:57 41.64707 -87.45139 38895 ft 573 kts 77°
2026-05-05 18:57 41.65890 -87.34607 38916 ft 573 kts 77°
2026-05-05 18:58 41.67062 -87.24074 38888 ft 572 kts 77°
2026-05-05 18:58 41.68222 -87.13550 38899 ft 571 kts 77°
2026-05-05 18:59 41.69372 -87.03034 38915 ft 570 kts 77°
2026-05-05 18:59 41.70505 -86.92593 38915 ft 570 kts 77°
2026-05-05 19:00 41.71636 -86.82072 38918 ft 570 kts 77°
2026-05-05 19:00 41.72757 -86.71545 38921 ft 571 kts 77°
2026-05-05 19:01 41.73870 -86.61004 38911 ft 572 kts 78°
2026-05-05 19:01 41.74972 -86.50462 38905 ft 571 kts 78°
2026-05-05 19:02 41.76065 -86.39926 38891 ft 570 kts 78°
2026-05-05 19:02 41.77235 -86.29457 38894 ft 565 kts 73°
2026-05-05 19:03 41.78965 -86.19278 38897 ft 563 kts 71°
2026-05-05 19:03 41.80774 -86.09080 38889 ft 563 kts 71°
2026-05-05 19:04 41.82541 -85.98845 38886 ft 562 kts 72°
2026-05-05 19:04 41.84268 -85.88603 38899 ft 563 kts 72°
2026-05-05 19:05 41.85984 -85.78349 38878 ft 563 kts 72°
2026-05-05 19:05 41.87696 -85.68081 38881 ft 562 kts 72°
2026-05-05 19:06 41.89385 -85.57901 38881 ft 563 kts 72°
2026-05-05 19:06 41.91079 -85.47639 38890 ft 564 kts 73°
2026-05-05 19:07 41.92765 -85.37348 38887 ft 563 kts 73°
2026-05-05 19:07 41.94438 -85.27087 38864 ft 562 kts 73°
2026-05-05 19:08 41.96149 -85.16843 38866 ft 560 kts 72°
2026-05-05 19:08 41.98002 -85.06675 38868 ft 559 kts 71°
2026-05-05 19:09 41.99870 -84.96516 38870 ft 558 kts 71°
2026-05-05 19:09 42.01687 -84.86438 38874 ft 559 kts 72°
2026-05-05 19:10 42.03495 -84.76257 38863 ft 559 kts 72°
2026-05-05 19:10 42.05293 -84.66062 38855 ft 560 kts 72°
2026-05-05 19:11 42.07083 -84.55864 38903 ft 559 kts 72°
2026-05-05 19:11 42.08863 -84.45678 38863 ft 559 kts 72°
2026-05-05 19:12 42.10635 -84.35481 38846 ft 559 kts 73°
2026-05-05 19:12 42.12397 -84.25281 38849 ft 558 kts 73°
2026-05-05 19:13 42.14135 -84.15165 38851 ft 557 kts 73°
2026-05-05 19:13 42.15872 -84.04995 38846 ft 557 kts 73°
2026-05-05 19:14 42.17602 -83.94811 38848 ft 557 kts 73°
2026-05-05 19:14 42.19321 -83.84631 38857 ft 556 kts 73°
2026-05-05 19:15 42.21032 -83.74443 38863 ft 556 kts 73°
2026-05-05 19:15 42.22730 -83.64271 38858 ft 556 kts 74°
2026-05-05 19:16 42.24421 -83.54081 38873 ft 557 kts 74°
2026-05-05 19:16 42.26096 -83.43926 38869 ft 556 kts 75°
2026-05-05 19:17 42.27766 -83.33741 38856 ft 555 kts 75°
2026-05-05 19:17 42.29427 -83.23553 38864 ft 555 kts 75°
2026-05-05 19:18 42.31077 -83.13368 38850 ft 555 kts 75°
2026-05-05 19:18 42.32718 -83.03181 38861 ft 555 kts 75°
2026-05-05 19:19 42.34350 -82.92990 38858 ft 554 kts 75°
2026-05-05 19:19 42.35973 -82.82799 38855 ft 554 kts 75°
2026-05-05 19:20 42.37418 -82.72541 38849 ft 556 kts 82°
2026-05-05 19:20 42.37713 -82.62156 38882 ft 557 kts 94°
2026-05-05 19:21 42.37233 -82.51644 38859 ft 557 kts 95°
2026-05-05 19:21 42.36746 -82.41247 38843 ft 557 kts 94°
2026-05-05 19:22 42.36305 -82.30796 38838 ft 556 kts 94°
2026-05-05 19:22 42.35879 -82.20376 38846 ft 554 kts 94°
2026-05-05 19:23 42.35442 -82.09975 38844 ft 554 kts 94°
2026-05-05 19:23 42.34991 -81.99584 38842 ft 554 kts 94°
2026-05-05 19:24 42.34529 -81.89171 38853 ft 556 kts 94°
2026-05-05 19:24 42.34056 -81.78724 38825 ft 556 kts 94°
2026-05-05 19:25 42.33655 -81.70035 38816 ft 555 kts 94°
2026-05-05 19:25 42.33090 -81.57958 38811 ft 553 kts 95°
2026-05-05 19:26 42.32598 -81.47592 38812 ft 552 kts 95°
2026-05-05 19:26 42.32187 -81.38982 38809 ft 552 kts 95°
2026-05-05 19:27 42.31684 -81.28625 38801 ft 552 kts 95°
2026-05-05 19:27 42.31088 -81.16602 38811 ft 551 kts 95°
2026-05-05 19:28 42.30651 -81.07948 38800 ft 552 kts 95°
2026-05-05 19:28 42.30119 -80.97601 38805 ft 552 kts 95°
2026-05-05 19:29 42.29579 -80.87258 38800 ft 552 kts 95°
2026-05-05 19:29 42.29030 -80.76913 38804 ft 552 kts 95°
2026-05-05 19:30 42.28472 -80.66642 38802 ft 551 kts 95°
2026-05-05 19:30 42.27895 -80.56307 38811 ft 551 kts 95°
2026-05-05 19:31 42.27309 -80.45979 38805 ft 551 kts 95°
2026-05-05 19:31 42.26721 -80.35721 38816 ft 551 kts 95°
2026-05-05 19:32 42.26120 -80.25406 38813 ft 551 kts 95°
2026-05-05 19:32 42.25509 -80.15095 38808 ft 551 kts 95°
2026-05-05 19:33 42.24890 -80.04792 38811 ft 550 kts 95°
2026-05-05 19:33 42.24262 -79.94497 38810 ft 550 kts 95°
2026-05-05 19:34 42.23625 -79.84211 38810 ft 550 kts 95°
2026-05-05 19:35 42.22651 -79.68768 38810 ft 550 kts 95°
2026-05-05 19:35 42.21991 -79.58479 38807 ft 550 kts 95°
2026-05-05 19:36 42.21326 -79.48256 38818 ft 550 kts 95°
2026-05-05 19:36 42.20647 -79.37975 38811 ft 549 kts 95°
2026-05-05 19:37 42.19962 -79.27716 38812 ft 549 kts 95°
2026-05-05 19:37 42.19268 -79.17537 38814 ft 548 kts 96°
2026-05-05 19:38 42.17846 -79.07441 38837 ft 547 kts 108°
2026-05-05 19:38 42.15402 -78.97748 38822 ft 545 kts 111°
2026-05-05 19:39 42.12904 -78.88110 38816 ft 545 kts 111°
2026-05-05 19:39 42.10443 -78.78435 38794 ft 545 kts 110°
2026-05-05 19:40 42.08002 -78.68761 38808 ft 546 kts 110°
2026-05-05 19:40 42.05575 -78.59168 38814 ft 545 kts 110°
2026-05-05 19:41 42.03121 -78.49531 38790 ft 543 kts 110°
2026-05-05 19:41 42.00667 -78.39940 38807 ft 541 kts 110°
2026-05-05 19:42 41.98211 -78.30383 38810 ft 540 kts 110°
2026-05-05 19:42 41.95750 -78.20843 38812 ft 540 kts 111°
2026-05-05 19:43 41.93281 -78.11305 38825 ft 540 kts 111°
2026-05-05 19:43 41.90803 -78.01774 38818 ft 541 kts 111°
2026-05-05 19:44 41.88312 -77.92222 38806 ft 541 kts 111°
2026-05-05 19:44 41.85834 -77.82761 38804 ft 540 kts 111°
2026-05-05 19:45 41.83351 -77.73275 38791 ft 539 kts 111°
2026-05-05 19:45 41.80868 -77.63812 38787 ft 538 kts 111°
2026-05-05 19:46 41.78373 -77.54340 38800 ft 537 kts 111°
2026-05-05 19:46 41.75867 -77.44939 38780 ft 535 kts 111°
2026-05-05 19:47 41.73350 -77.35555 38793 ft 535 kts 111°
2026-05-05 19:47 41.70837 -77.26200 38793 ft 534 kts 111°
2026-05-05 19:48 41.68318 -77.16848 38764 ft 532 kts 111°
2026-05-05 19:48 41.65803 -77.07550 38770 ft 530 kts 111°
2026-05-05 19:49 41.63310 -76.98363 38771 ft 529 kts 111°
2026-05-05 19:49 41.60795 -76.89125 38770 ft 528 kts 111°
2026-05-05 19:50 41.58235 -76.79931 38700 ft 525 kts 112°
2026-05-05 19:50 41.55713 -76.70841 38778 ft 521 kts 110°
2026-05-05 19:51 41.53307 -76.61756 38776 ft 523 kts 111°
2026-05-05 19:51 41.50788 -76.52641 38780 ft 524 kts 111°
2026-05-05 19:52 41.48261 -76.43530 38779 ft 522 kts 112°
2026-05-05 19:52 41.45744 -76.34458 38444 ft 525 kts 112°
2026-05-05 19:52 41.44470 -76.29877 37658 ft 527 kts 112°
2026-05-05 19:53 41.43195 -76.25301 36961 ft 525 kts 112°
2026-05-05 19:53 41.41924 -76.20742 36241 ft 524 kts 112°
2026-05-05 19:53 41.40651 -76.16187 35513 ft 525 kts 112°
2026-05-05 19:53 41.39371 -76.11616 34657 ft 529 kts 111°
2026-05-05 19:54 41.38078 -76.07011 33757 ft 533 kts 111°
2026-05-05 19:54 41.36773 -76.02369 32825 ft 536 kts 111°
2026-05-05 19:54 41.35469 -75.97734 32219 ft 531 kts 111°
2026-05-05 19:54 41.34181 -75.93161 31633 ft 527 kts 111°
2026-05-05 19:55 41.32896 -75.88611 31046 ft 523 kts 111°
2026-05-05 19:55 41.31621 -75.84105 30440 ft 519 kts 111°
2026-05-05 19:55 41.30388 -75.79693 29863 ft 513 kts 113°
2026-05-05 19:55 41.29094 -75.75300 29197 ft 506 kts 112°
2026-05-05 19:56 41.27864 -75.70950 28547 ft 499 kts 111°
2026-05-05 19:56 41.26621 -75.66699 27917 ft 489 kts 114°
2026-05-05 19:56 41.25258 -75.62606 27308 ft 482 kts 116°
2026-05-05 19:56 41.23897 -75.58572 26705 ft 476 kts 116°
2026-05-05 19:57 41.22537 -75.54580 26149 ft 471 kts 116°
2026-05-05 19:57 41.21629 -75.51913 25767 ft 468 kts 116°
2026-05-05 19:57 41.19869 -75.46718 24989 ft 462 kts 116°
2026-05-05 19:57 41.18561 -75.42839 24405 ft 459 kts 116°
2026-05-05 19:58 41.17264 -75.38987 23817 ft 455 kts 117°
2026-05-05 19:58 41.15976 -75.35165 23183 ft 452 kts 117°
2026-05-05 19:58 41.14696 -75.31374 22778 ft 442 kts 117°
2026-05-05 19:58 41.13474 -75.27749 22661 ft 432 kts 117°
2026-05-05 19:59 41.12226 -75.24060 22549 ft 436 kts 117°
2026-05-05 19:59 41.10990 -75.20415 22425 ft 440 kts 117°
2026-05-05 19:59 41.09718 -75.16658 22305 ft 441 kts 117°
2026-05-05 19:59 41.08480 -75.13000 22151 ft 439 kts 117°
2026-05-05 20:00 41.07231 -75.09322 22024 ft 437 kts 117°
2026-05-05 20:00 41.05985 -75.05657 21884 ft 436 kts 117°
2026-05-05 20:00 41.04740 -75.02004 21753 ft 434 kts 117°
2026-05-05 20:00 41.03497 -74.98359 21618 ft 433 kts 117°
2026-05-05 20:01 41.02257 -74.94724 21494 ft 432 kts 117°
2026-05-05 20:01 41.01019 -74.91100 21363 ft 432 kts 117°
2026-05-05 20:01 40.99935 -74.87386 21227 ft 433 kts 110°
2026-05-05 20:01 40.99147 -74.83532 21112 ft 434 kts 104°
2026-05-05 20:02 40.98657 -74.79585 20970 ft 435 kts 100°
2026-05-05 20:02 40.98220 -74.75630 20854 ft 434 kts 100°
2026-05-05 20:02 40.97781 -74.71676 20730 ft 434 kts 100°
2026-05-05 20:02 40.97334 -74.67726 20599 ft 434 kts 100°
2026-05-05 20:03 40.96879 -74.63781 20483 ft 434 kts 101°
2026-05-05 20:03 40.96418 -74.59841 20367 ft 433 kts 101°
2026-05-05 20:03 40.95953 -74.55904 20241 ft 432 kts 101°
2026-05-05 20:03 40.95487 -74.51979 20128 ft 432 kts 101°
2026-05-05 20:04 40.95020 -74.48061 19994 ft 431 kts 101°
2026-05-05 20:04 40.94553 -74.44155 19861 ft 430 kts 101°
2026-05-05 20:04 40.94091 -74.40295 19729 ft 429 kts 101°
2026-05-05 20:04 40.93624 -74.36401 19601 ft 428 kts 101°
2026-05-05 20:05 40.93155 -74.32510 19472 ft 427 kts 101°
2026-05-05 20:05 40.92687 -74.28634 19354 ft 426 kts 101°
2026-05-05 20:05 40.92219 -74.24762 19232 ft 424 kts 101°
2026-05-05 20:05 40.91758 -74.20961 19109 ft 412 kts 101°
2026-05-05 20:06 40.91310 -74.17284 18983 ft 397 kts 102°
2026-05-05 20:06 40.90506 -74.13925 18850 ft 373 kts 123°
2026-05-05 20:06 40.88989 -74.11216 18374 ft 366 kts 140°
2026-05-05 20:06 40.86996 -74.09189 17732 ft 355 kts 154°
2026-05-05 20:07 40.84902 -74.07621 16947 ft 347 kts 157°
2026-05-05 20:07 40.82818 -74.06115 16299 ft 337 kts 157°
2026-05-05 20:07 40.80789 -74.04627 15647 ft 330 kts 157°
2026-05-05 20:07 40.78769 -74.03127 15020 ft 337 kts 157°
2026-05-05 20:08 40.76738 -74.01607 14436 ft 330 kts 157°
2026-05-05 20:08 40.74872 -73.99895 14139 ft 331 kts 140°
2026-05-05 20:08 40.73404 -73.97441 13994 ft 344 kts 131°
2026-05-05 20:08 40.72000 -73.94899 13967 ft 344 kts 132°
2026-05-05 20:09 40.70563 -73.92383 13958 ft 341 kts 133°
2026-05-05 20:09 40.69135 -73.89921 13942 ft 336 kts 133°
2026-05-05 20:09 40.67708 -73.87477 13986 ft 337 kts 133°
2026-05-05 20:09 40.66284 -73.85008 13935 ft 340 kts 131°
2026-05-05 20:10 40.64938 -73.82442 13421 ft 349 kts 129°
2026-05-05 20:10 40.63602 -73.79762 12946 ft 346 kts 128°
2026-05-05 20:10 40.62306 -73.77152 12516 ft 337 kts 129°
2026-05-05 20:10 40.61018 -73.74590 12134 ft 336 kts 129°
2026-05-05 20:11 40.59724 -73.72041 11729 ft 335 kts 129°
2026-05-05 20:11 40.58428 -73.69500 11340 ft 334 kts 130°
2026-05-05 20:11 40.57131 -73.66964 10947 ft 333 kts 130°
2026-05-05 20:11 40.55920 -73.64388 10506 ft 331 kts 119°
2026-05-05 20:12 40.55441 -73.61417 10135 ft 336 kts 90°
2026-05-05 20:12 40.55923 -73.58511 9750 ft 324 kts 63°
2026-05-05 20:12 40.57127 -73.56108 9369 ft 308 kts 42°
2026-05-05 20:12 40.58724 -73.54359 9011 ft 291 kts 28°
2026-05-05 20:13 40.60361 -73.52880 8663 ft 282 kts 28°
2026-05-05 20:13 40.61960 -73.51394 8371 ft 281 kts 29°
2026-05-05 20:13 40.63553 -73.49899 8041 ft 281 kts 29°
2026-05-05 20:13 40.65183 -73.48506 7762 ft 276 kts 23°
2026-05-05 20:14 40.66865 -73.47300 7493 ft 274 kts 21°
2026-05-05 20:14 40.68548 -73.46132 7209 ft 273 kts 20°
2026-05-05 20:14 40.70252 -73.45060 6931 ft 271 kts 19°
2026-05-05 20:14 40.71951 -73.44008 6667 ft 269 kts 20°
2026-05-05 20:15 40.73074 -73.43305 6484 ft 269 kts 20°
2026-05-05 20:15 40.74780 -73.42464 6238 ft 252 kts
2026-05-05 20:15 40.76424 -73.42707 5960 ft 230 kts 328°
2026-05-05 20:15 40.77737 -73.43743 5729 ft 211 kts 312°
2026-05-05 20:16 40.78683 -73.45104 5523 ft 195 kts 294°
2026-05-05 20:16 40.79403 -73.46642 5289 ft 198 kts 291°
2026-05-05 20:16 40.80105 -73.48188 5049 ft 194 kts 291°
2026-05-05 20:16 40.80796 -73.49700 4817 ft 191 kts 291°
2026-05-05 20:17 40.81475 -73.51184 4574 ft 186 kts 291°
2026-05-05 20:17 40.82088 -73.52644 4360 ft 175 kts 279°
2026-05-05 20:17 40.82140 -73.54172 4181 ft 166 kts 252°
2026-05-05 20:17 40.81800 -73.55650 4004 ft 170 kts 247°
2026-05-05 20:18 40.81416 -73.57126 3816 ft 168 kts 246°
2026-05-05 20:18 40.81037 -73.58571 3613 ft 165 kts 246°
2026-05-05 20:18 40.80664 -73.59993 3392 ft 163 kts 246°
2026-05-05 20:18 40.80292 -73.61405 3219 ft 163 kts 245°
2026-05-05 20:19 40.79830 -73.62748 3047 ft 161 kts 228°
2026-05-05 20:19 40.78968 -73.63677 2908 ft 161 kts 217°
2026-05-05 20:19 40.78078 -73.64572 2727 ft 159 kts 218°
2026-05-05 20:19 40.77203 -73.65433 2588 ft 156 kts 216°
2026-05-05 20:20 40.76270 -73.66240 2442 ft 163 kts 213°
2026-05-05 20:20 40.75298 -73.67021 2287 ft 164 kts 212°
2026-05-05 20:20 40.74326 -73.67794 2113 ft 162 kts 211°
2026-05-05 20:20 40.73370 -73.68544 1954 ft 162 kts 210°
2026-05-05 20:21 40.72411 -73.69294 1781 ft 160 kts 211°
2026-05-05 20:21 40.71496 -73.70016 1603 ft 144 kts 210°
2026-05-05 20:21 40.70681 -73.70656 1404 ft 128 kts 210°
2026-05-05 20:21 40.69979 -73.71206 1255 ft 109 kts 208°
2026-05-05 20:22 40.69308 -73.71733 1122 ft 114 kts 208°
2026-05-05 20:22 40.68629 -73.72268 974 ft 113 kts 207°
2026-05-05 20:22 40.67949 -73.72803 823 ft 116 kts 206°
2026-05-05 20:22 40.67250 -73.73360 667 ft 115 kts 204°
2026-05-05 20:23 40.66584 -73.73869 500 ft 106 kts 204°
2026-05-05 20:23 40.65943 -73.74369 389 ft 110 kts 206°
2026-05-05 20:23 40.65302 -73.74878 229 ft 106 kts 208°
2026-05-05 20:23 40.64661 -73.75376 119 ft 107 kts 207°
2026-05-05 20:24 40.64017 -73.75866 56 ft 108 kts 211°
2026-05-05 20:24 40.63382 -73.76380 27 ft 99 kts 211°
2026-05-05 20:24 40.62922 -73.76735 30 ft 50 kts 210°
2026-05-05 20:24 40.62779 -73.76844 27 ft 3 kts 210°
2026-05-05 20:25 40.62723 -73.76887 28 ft 18 kts 211°
2026-05-05 20:25 40.62594 -73.77012 28 ft 25 kts 237°
2026-05-05 20:25 40.62605 -73.77201 29 ft 18 kts 313°
2026-05-05 20:25 40.62716 -73.77250 25 ft 17 kts
2026-05-05 20:26 40.62822 -73.77184 26 ft 17 kts 31°
2026-05-05 20:26 40.62926 -73.77107 28 ft 17 kts 19°
2026-05-05 20:26 40.63020 -73.77178 31 ft 17 kts 300°
2026-05-05 20:26 40.63082 -73.77313 31 ft 17 kts 300°
2026-05-05 20:27 40.63145 -73.77446 30 ft 17 kts 301°
2026-05-05 20:27 40.63207 -73.77580 27 ft 17 kts 301°
2026-05-05 20:27 40.63267 -73.77715 28 ft 17 kts 300°
2026-05-05 20:27 40.63327 -73.77850 27 ft 17 kts 300°
2026-05-05 20:28 40.63388 -73.77985 29 ft 17 kts 300°
2026-05-05 20:28 40.63447 -73.78121 30 ft 17 kts 299°
2026-05-05 20:28 40.63510 -73.78263 28 ft 20 kts 302°
2026-05-05 20:28 40.63588 -73.78433 31 ft 22 kts 301°
2026-05-05 20:29 40.63662 -73.78598 31 ft 21 kts 300°
2026-05-05 20:29 40.63734 -73.78760 31 ft 20 kts 300°
2026-05-05 20:29 40.63804 -73.78919 29 ft 20 kts 301°
2026-05-05 20:29 40.63874 -73.79072 30 ft 20 kts 301°
2026-05-05 20:30 40.63945 -73.79226 30 ft 20 kts 300°
2026-05-05 20:30 40.64010 -73.79368 27 ft 16 kts 301°
2026-05-05 20:30 40.64074 -73.79477 26 ft 15 kts 323°
2026-05-05 20:30 40.64173 -73.79505 31 ft 15 kts
2026-05-05 20:31 40.64276 -73.79499 27 ft 15 kts
2026-05-05 20:31 40.64380 -73.79492 27 ft 15 kts 360°
2026-05-05 20:31 40.64478 -73.79499 27 ft 12 kts 356°
2026-05-05 20:31 40.64546 -73.79505 29 ft 10 kts 359°
2026-05-05 20:32 40.64599 -73.79459 27 ft 10 kts 64°
2026-05-05 20:32 40.64610 -73.79370 25 ft 10 kts 95°
2026-05-05 20:32 40.64607 -73.79280 24 ft 10 kts 84°
2026-05-05 20:32 40.64632 -73.79221 27 ft 3 kts 19°
2026-05-05 20:33 40.64651 -73.79226 23 ft 3 kts 340°
2026-05-05 20:33 40.64670 -73.79234 25 ft 2 kts 343°
2026-05-05 20:33 40.64683 -73.79239 24 ft 2 kts 345°
2026-05-05 20:33 40.64693 -73.79243 26 ft 1 kts 344°
2026-05-05 20:34 40.64700 -73.79245 25 ft 1 kts 345°
2026-05-05 20:34 40.64702 -73.79246 25 ft 0 kts 345°